User: anonymous   Login
Location: Ferma
(41.9500°N, 44.5167°E)
Time: 23:11:06
(UTC+00:00)
Language:

FENGYUN 1C DEB - Orbit

View from above orbital plane
View from above orbital plane
View from above satellite
View from above satellite

Ground track
Ground track

The orbit data is extracted from the following two-line orbital elements,

1 39536U 99025EWD 22216.73632201  .00000497  00000-0  53830-3 0  9990
2 39536  99.8549 218.9744 0253717 140.1355 221.8730 13.64984234450108
Epoch (UTC): 04 August 2022 17:40:18
Eccentricity: 0.0253717
inclination: 99.8549°
perigee height: 830 km
apogee height: 1205 km
right ascension of ascending node: 218.9744°
argument of perigee: 140.1355°
revolutions per day: 13.64984234
mean anomaly at epoch: 221.8730°
orbit number at epoch: 45010

The dashed part of the orbit path shows where the satellite is in the earth's shadow,  

DLR